Regional Weather Roundup
Issued by NWS

Home | Current Version | Previous Version | Graphics & Text | Print | Product List | Glossary On
Versions: 1 2 3 4 5 6 7 8 9 10 11 12 13 14 15 16 17 18 19 20 21 22 23 24 25 26 27 28 29 30 31 32 33 34 35 36 37 38 39 40 41 42 43 44 45 46 47 48 49 50
000
ASUS43 KLOT 120303
RWRIL

ILLINOIS REGIONAL WEATHER ROUNDUP
NATIONAL WEATHER SERVICE CHICAGO/ROMEOVILLE IL
900 PM CST THU FEB 11 2016

NOTE: "FAIR" INDICATES FEW OR NO CLOUDS BELOW 12,000 FEET WITH NO
SIGNIFICANT WEATHER AND/OR OBSTRUCTIONS TO VISIBILITY.

* THESE STATIONS ARE NOT UNDER NWS QUALITY CONTROL. THEY ALSO MAY NOT
  REPORT WEATHER SUCH AS PRECIPITATION OR FOG.

ILZ001-002-007-009-015-016-024-120400-
NORTHWEST ILLINOIS

CITY           SKY/WX    TMP DP  RH WIND       PRES   REMARKS
MOLINE         CLOUDY    22   7  52 CALM      30.28F
STERLING*      PTCLDY    21   7  53 SW3       30.25F
$$

ILZ003-004-008-010-011-017-018-120400-
NORTH CENTRAL ILLINOIS

CITY           SKY/WX    TMP DP  RH WIND       PRES   REMARKS
ROCKFORD       MOCLDY    17   7  64 CALM      30.28F
FREEPORT*      CLOUDY    18   8  64 CALM      30.28S
DE KALB*       CLOUDY    19   8  64 SW7       30.26S WCI   9
$$

ILZ005-006-012>014-019>023-120400-
NORTHEAST ILLINOIS

CITY           SKY/WX    TMP DP  RH WIND       PRES   REMARKS
CHICAGO-OHARE  PTCLDY    16   5  62 W5        30.27S WCI   9
CHICAGO-MIDWAY PTCLDY    19   4  51 W5        30.28S WCI  12
AURORA         CLOUDY    18   8  65 SW5       30.27F WCI  11
LANSING*       CLEAR     18   5  58 W5        30.29S WCI  11
WAUKEGAN       MOCLDY    12   3  67 SW5       30.25F WCI   4
DUPAGE AIRPORT CLEAR     13   3  64 CALM      30.26F
WHEELING       CLEAR     17   4  56 SW5       30.28S WCI  10
NORTHERLY ISL    N/A     21   5  50 SW2         N/A
$$

LMZ740>746-120400-
SOUTHERN LAKE MICHIGAN

STATION/POSITION SKY/WX   TEMP    WIND        PRES    VSBY  WAVE
                          AIR SEA DIR/SP/G                  HT/PER
                          (F)     (DEG/KT/KT) (MB)    (MI)  (FT/S)
HARRISON CRIB              22     270/ 11/ 12   N/A
BURNHAM HARBOR             20     250/  8/  9   N/A
CALUMET HARBOR             20                   N/A
BURNS HARBOR               18     180/  8/ 10 1025.7F
MICHIGAN CITY              16     140/  6/  7   N/A
$$

ILZ025>027-034>036-040-047-049-050-058-095>099-120400-
WEST-CENTRAL ILLINOIS

CITY           SKY/WX    TMP DP  RH WIND       PRES   REMARKS
QUINCY         CLOUDY    23  11  60 SE7       30.27F WCI  15
MACOMB*        CLOUDY    24  12  59 CALM      30.30S
$$

ILZ028>032-037-038-041>044-048-051>054-059>061-120400-
CENTRAL ILLINOIS

CITY           SKY/WX    TMP DP  RH WIND       PRES   REMARKS
BLOOMINGTON    MOCLDY    22  11  62 S6        30.28F WCI  15
DECATUR        CLOUDY    24   9  52 SE6       30.29F WCI  17
PEORIA         CLOUDY    24   7  48 S5        30.29F WCI  18
LINCOLN*       CLOUDY    25  12  56 S3        30.30S
SPRINGFIELD    CLOUDY    26  12  55 S7        30.30F WCI  18
TAYLORVILLE    NOT AVBL
$$

ILZ033-039-045-046-055>057-062-063-120400-
EAST-CENTRAL ILLINOIS

CITY           SKY/WX    TMP DP  RH WIND       PRES   REMARKS
CHAMPAIGN      PTCLDY    20  11  68 E3        30.29S
MATTOON        CLOUDY    21   9  59 S3        30.29S
$$

ILZ079-100>102-120400-
SOUTHWEST ILLINOIS

CITY           SKY/WX    TMP DP  RH WIND       PRES   REMARKS
ALTON          CLOUDY    25  14  63 E3        30.29F
BELLEVILLE     PTCLDY    27  13  55 E2        30.29S
CAHOKIA*       CLOUDY    28  13  53 E7        30.29F WCI  21
SPARTA*        CLOUDY    26  15  61 CALM      30.31S
$$

ILZ064>066-069>071-074>076-080>082-084>086-088>090-092>094-120400-
SOUTH-CENTRAL ILLINOIS

CITY           SKY/WX    TMP DP  RH WIND       PRES   REMARKS
CARBONDALE     MOCLDY    29  16  58 CALM      30.31R
MARION         MOCLDY    30  16  55 CALM      30.31R
MT. VERNON     CLOUDY    27  12  54 CALM      30.31S
CENTRALIA*     CLOUDY    27  17  66 CALM      30.30R
SALEM*         CLOUDY    27  14  57 CALM      30.30S
$$

ILZ067-068-072-073-078-083-087-091-120400-
SOUTHEAST ILLINOIS

CITY           SKY/WX    TMP DP  RH WIND       PRES   REMARKS
LAWRENCEVILLE  MOCLDY    25  12  58 NE3       30.31F
HARRISBURG*    PTCLDY    30  18  61 NE3       30.30S
$$

ABBREVIATIONS USED IN REMARKS
   TC - TEMPERATURE IN CELSIUS
  WCI - WIND CHILL INDEX
   HX - HEAT INDEX
  VSB - VISIBILITY
$$




USA.gov is the U.S. government's official web portal to all federal, state and local government web resources and services.